Total_Precipitation_Accumulation
0.18 0.14 0.10 0.10 0.04 0.01 0.00 0.00 0.01 0.00 0.00 0.00 0.00 0.00 0.00 0.00 0.00 0.00 0.00 0.00 0.00 0.00 0.00 0.00 0.00 0.00 0.00 0.00 0.00 0.00 0.00 0.00 0.00 0.00 0.00 0.00 0.00 0.00 0.00 0.00 0.00 0.00 0.00 0.00 0.00 0.00 0.00
0.43 0.31 0.26 0.26 0.22 0.15 0.08 0.02 0.00 0.00 0.00 0.03 0.07 0.08 0.08 0.07 0.04 0.02 0.00 0.00 0.00 0.00 0.00 0.00 0.00 0.00 0.00 0.00 0.00 0.00 0.00 0.00 0.00 0.00 0.00 0.00 0.00 0.00 0.00 0.00 0.00 0.00 0.00 0.00 0.00 0.00 0.00
0.85 0.77 0.57 0.40 0.25 0.17 0.17 0.16 0.12 0.12 0.24 0.31 0.20 0.21 0.17 0.10 0.07 0.03 0.01 0.00 0.00 0.00 0.00 0.00 0.00 0.00 0.00 0.00 0.00 0.00 0.00 0.00 0.00 0.00 0.00 0.00 0.00 0.00 0.00 0.00 0.00 0.00 0.00 0.00 0.00 0.00 0.00
0.80 0.91 0.80 0.64 0.50 0.40 0.34 0.29 0.23 0.22 0.36 0.47 0.46 0.33 0.20 0.12 0.08 0.06 0.04 0.01 0.00 0.00 0.00 0.00 0.00 0.00 0.00 0.00 0.00 0.00 0.00 0.00 0.00 0.00 0.00 0.00 0.00 0.00 0.00 0.00 0.00 0.00 0.00 0.00 0.00 0.00 0.00
0.20 0.39 0.62 0.69 0.64 0.55 0.44 0.36 0.30 0.24 0.22 0.30 0.32 0.30 0.27 0.14 0.06 0.04 0.03 0.01 0.00 0.00 0.00 0.00 0.00 0.00 0.00 0.00 0.00 0.00 0.00 0.00 0.00 0.00 0.00 0.00 0.00 0.00 0.00 0.00 0.00 0.00 0.00 0.00 0.00 0.00 0.00
0.10 0.16 0.25 0.25 0.30 0.31 0.33 0.31 0.24 0.21 0.17 0.17 0.20 0.20 0.20 0.15 0.06 0.03 0.02 0.01 0.00 0.00 0.00 0.00 0.00 0.00 0.00 0.00 0.00 0.00 0.00 0.00 0.00 0.00 0.00 0.00 0.00 0.00 0.00 0.00 0.00 0.00 0.00 0.00 0.00 0.00 0.00
0.05 0.09 0.16 0.13 0.10 0.10 0.14 0.21 0.11 0.12 0.15 0.15 0.15 0.15 0.18 0.18 0.15 0.09 0.05 0.03 0.02 0.01 0.00 0.00 0.00 0.00 0.00 0.00 0.00 0.00 0.00 0.00 0.00 0.00 0.00 0.00 0.00 0.00 0.00 0.00 0.00 0.00 0.00 0.00 0.00 0.00 0.00
0.06 0.06 0.07 0.08 0.09 0.11 0.11 0.16 0.25 0.12 0.10 0.11 0.13 0.11 0.11 0.08 0.06 0.05 0.05 0.06 0.05 0.03 0.01 0.00 0.00 0.00 0.00 0.00 0.00 0.00 0.00 0.00 0.00 0.00 0.00 0.00 0.00 0.00 0.00 0.00 0.00 0.00 0.00 0.00 0.00 0.00 0.00
0.04 0.04 0.04 0.03 0.02 0.02 0.05 0.11 0.17 0.26 0.14 0.11 0.12 0.12 0.12 0.13 0.10 0.05 0.02 0.02 0.01 0.00 0.00 0.00 0.00 0.00 0.00 0.00 0.00 0.00 0.00 0.00 0.00 0.00 0.00 0.00 0.00 0.00 0.00 0.00 0.00 0.00 0.00 0.00 0.00 0.00 0.00
0.01 0.01 0.01 0.01 0.01 0.00 0.01 0.01 0.04 0.12 0.16 0.09 0.10 0.06 0.03 0.02 0.01 0.02 0.02 0.01 0.01 0.00 0.01 0.00 0.00 0.00 0.00 0.00 0.00 0.00 0.00 0.00 0.00 0.00 0.00 0.00 0.00 0.00 0.00 0.00 0.00 0.00 0.00 0.00 0.00 0.00 0.00
0.01 0.00 0.00 0.00 0.00 0.00 0.00 0.00 0.00 0.01 0.10 0.09 0.11 0.06 0.00 0.00 0.00 0.00 0.00 0.00 0.00 0.00 0.04 0.00 0.00 0.00 0.00 0.00 0.00 0.00 0.00 0.00 0.00 0.00 0.00 0.00 0.00 0.00 0.00 0.00 0.00 0.00 0.00 0.00 0.00 0.00 0.00
0.00 0.00 0.00 0.00 0.00 0.00 0.00 0.00 0.00 0.00 0.01 0.17 0.32 0.15 0.04 0.01 0.00 0.00 0.00 0.00 0.01 0.02 0.01 0.00 0.00 0.00 0.00 0.00 0.00 0.00 0.00 0.00 0.00 0.00 0.00 0.00 0.00 0.00 0.00 0.00 0.00 0.00 0.00 0.00 0.00 0.00 0.00
0.00 0.00 0.00 0.00 0.00 0.00 0.00 0.00 0.00 0.00 0.00 0.03 0.32 0.38 0.15 0.01 0.00 0.00 0.00 0.00 0.06 0.03 0.00 0.00 0.00 0.00 0.00 0.00 0.00 0.00 0.00 0.00 0.00 0.00 0.00 0.00 0.00 0.00 0.00 0.00 0.00 0.00 0.00 0.00 0.00 0.00 0.00
0.00 0.00 0.00 0.00 0.00 0.00 0.00 0.00 0.00 0.00 0.00 0.00 0.05 0.36 0.35 0.08 0.05 0.00 0.03 0.07 0.06 0.00 0.00 0.00 0.00 0.00 0.00 0.00 0.00 0.00 0.00 0.00 0.00 0.00 0.00 0.00 0.00 0.00 0.00 0.00 0.00 0.00 0.00 0.02 0.01 0.00 0.00
0.00 0.00 0.00 0.00 0.00 0.00 0.00 0.00 0.00 0.00 0.00 0.00 0.02 0.23 0.39 0.33 0.29 0.16 0.16 0.26 0.02 0.00 0.00 0.00 0.00 0.00 0.00 0.00 0.00 0.00 0.00 0.00 0.00 0.00 0.00 0.00 0.00 0.00 0.00 0.00 0.00 0.00 0.00 0.01 0.06 0.14 0.18
0.00 0.00 0.00 0.00 0.00 0.00 0.00 0.00 0.00 0.00 0.00 0.00 0.01 0.10 0.16 0.33 0.56 0.62 0.76 0.34 0.01 0.00 0.00 0.00 0.00 0.00 0.00 0.00 0.00 0.00 0.00 0.00 0.00 0.00 0.00 0.00 0.00 0.00 0.00 0.00 0.00 0.00 0.00 0.00 0.10 0.27 0.11
0.00 0.00 0.00 0.00 0.00 0.00 0.00 0.00 0.00 0.00 0.00 0.00 0.00 0.03 0.08 0.19 0.58 1.28 1.08 0.27 0.00 0.00 0.00 0.00 0.00 0.00 0.00 0.00 0.00 0.00 0.01 0.00 0.00 0.00 0.00 0.00 0.00 0.00 0.00 0.00 0.00 0.00 0.00 0.00 0.02 0.09 0.12
0.00 0.00 0.00 0.00 0.00 0.00 0.00 0.00 0.00 0.00 0.00 0.00 0.00 0.00 0.02 0.16 0.27 0.67 0.46 0.07 0.00 0.00 0.00 0.00 0.00 0.00 0.00 0.00 0.00 0.00 0.01 0.02 0.00 0.00 0.00 0.00 0.04 0.02 0.00 0.00 0.00 0.00 0.00 0.00 0.05 0.10 0.07
0.00 0.00 0.00 0.00 0.00 0.00 0.00 0.00 0.00 0.00 0.00 0.00 0.00 0.00 0.00 0.12 0.08 0.08 0.11 0.04 0.00 0.00 0.00 0.00 0.00 0.00 0.00 0.00 0.00 0.00 0.02 0.02 0.05 0.02 0.03 0.01 0.10 0.13 0.02 0.00 0.00 0.00 0.00 0.00 0.01 0.08 0.16
0.01 0.00 0.00 0.00 0.00 0.00 0.00 0.00 0.00 0.00 0.00 0.00 0.00 0.00 0.00 0.02 0.01 0.00 0.00 0.03 0.03 0.00 0.00 0.01 0.04 0.00 0.00 0.00 0.00 0.00 0.00 0.01 0.03 0.09 0.17 0.16 0.23 0.29 0.21 0.06 0.04 0.02 0.00 0.01 0.05 0.14 0.14
0.02 0.01 0.01 0.00 0.00 0.00 0.00 0.00 0.00 0.00 0.00 0.00 0.00 0.00 0.00 0.00 0.00 0.00 0.00 0.00 0.00 0.00 0.00 0.00 0.12 0.08 0.01 0.03 0.01 0.02 0.01 0.00 0.02 0.09 0.16 0.30 0.47 0.44 0.32 0.21 0.14 0.12 0.05 0.01 0.03 0.06 0.14
0.02 0.01 0.01 0.00 0.00 0.00 0.00 0.00 0.00 0.00 0.01 0.00 0.00 0.00 0.00 0.00 0.00 0.00 0.01 0.02 0.00 0.00 0.00 0.01 0.05 0.01 0.02 0.04 0.02 0.03 0.04 0.03 0.03 0.04 0.09 0.22 0.37 0.39 0.30 0.36 0.27 0.13 0.03 0.03 0.10 0.15 0.23
0.01 0.01 0.01 0.00 0.00 0.00 0.00 0.01 0.00 0.00 0.02 0.00 0.00 0.00 0.00 0.00 0.00 0.02 0.01 0.00 0.00 0.01 0.01 0.00 0.02 0.03 0.03 0.01 0.02 0.02 0.03 0.02 0.03 0.03 0.06 0.12 0.12 0.19 0.16 0.20 0.26 0.13 0.02 0.04 0.06 0.13 0.23
0.01 0.00 0.00 0.00 0.00 0.00 0.00 0.01 0.01 0.01 0.02 0.00 0.00 0.00 0.00 0.00 0.00 0.00 0.00 0.00 0.00 0.00 0.02 0.01 0.03 0.09 0.04 0.03 0.07 0.06 0.04 0.03 0.02 0.01 0.02 0.06 0.09 0.18 0.12 0.09 0.22 0.05 0.01 0.01 0.01 0.03 0.03
0.02 0.01 0.00 0.00 0.00 0.00 0.00 0.00 0.01 0.02 0.03 0.01 0.00 0.01 0.01 0.00 0.00 0.00 0.00 0.00 0.00 0.00 0.00 0.00 0.01 0.05 0.04 0.17 0.47 0.35 0.16 0.12 0.05 0.01 0.00 0.01 0.06 0.17 0.15 0.08 0.03 0.00 0.00 0.00 0.00 0.00 0.00
0.04 0.01 0.01 0.01 0.00 0.00 0.00 0.00 0.00 0.01 0.04 0.04 0.02 0.03 0.03 0.04 0.01 0.00 0.01 0.01 0.02 0.01 0.01 0.01 0.03 0.02 0.12 0.35 0.47 0.30 0.21 0.15 0.07 0.03 0.01 0.02 0.07 0.19 0.14 0.09 0.02 0.00 0.00 0.00 0.00 0.00 0.00
0.05 0.03 0.02 0.01 0.00 0.00 0.00 0.00 0.00 0.00 0.02 0.02 0.01 0.05 0.09 0.13 0.01 0.00 0.01 0.00 0.00 0.02 0.07 0.05 0.11 0.14 0.10 0.32 0.37 0.29 0.13 0.05 0.10 0.09 0.06 0.13 0.22 0.25 0.11 0.09 0.01 0.00 0.00 0.00 0.00 0.00 0.00
0.08 0.06 0.04 0.03 0.01 0.00 0.00 0.00 0.01 0.01 0.01 0.03 0.01 0.01 0.05 0.08 0.01 0.00 0.01 0.06 0.09 0.04 0.05 0.07 0.19 0.28 0.33 0.24 0.21 0.15 0.12 0.06 0.04 0.01 0.01 0.04 0.12 0.19 0.20 0.26 0.06 0.00 0.00 0.00 0.00 0.00 0.00
0.09 0.10 0.07 0.06 0.04 0.02 0.01 0.01 0.01 0.02 0.03 0.07 0.03 0.00 0.04 0.09 0.02 0.00 0.01 0.05 0.13 0.11 0.10 0.13 0.26 0.28 0.40 0.35 0.17 0.09 0.05 0.03 0.04 0.07 0.05 0.05 0.01 0.01 0.02 0.05 0.01 0.00 0.00 0.00 0.00 0.00 0.00